Wetbulb
65.58 65.95 65.16 65.09 64.53 64.26 62.88 61.62 61.95 61.72 61.63 61.14 61.42 62.86 64.21 63.27 63.92 62.79 61.72 60.24 60.08 58.45
64.21 64.07 62.75 62.53 61.91 60.15 60.79 59.83 60.40 60.08 59.65 59.22 59.20 59.88 61.19 60.43 61.05 61.79 61.21 61.10 59.99 58.67
61.73 61.51 61.10 61.08 60.42 60.17 59.80 59.45 59.30 58.91 58.66 58.15 57.97 58.30 59.18 58.75 58.56 59.60 59.00 57.91 56.60 56.35
60.08 60.14 60.32 59.97 59.80 59.53 59.39 58.92 58.25 57.98 57.34 56.81 56.44 57.50 58.13 57.51 56.93 56.39 56.87 56.68 55.46 55.13
59.55 59.34 59.25 58.94 59.13 59.01 58.27 58.19 57.69 57.18 56.32 55.77 55.59 56.00 56.18 55.55 55.34 54.58 53.81 53.91 54.24 54.26
58.74 58.56 58.74 58.47 58.38 58.30 57.62 57.37 57.02 56.70 56.14 55.41 55.14 54.66 55.30 55.25 54.64 54.62 53.88 53.36 53.24 53.42
58.56 58.63 58.67 58.51 58.06 57.70 57.59 56.77 56.54 56.50 55.79 55.28 54.67 54.37 54.49 54.68 54.87 54.69 54.08 53.50 52.48 51.88
58.80 58.82 58.42 57.84 57.56 57.43 57.15 56.61 56.61 55.97 55.71 55.05 54.48 54.29 54.24 54.08 54.71 54.37 53.67 52.38 52.41 52.32
58.24 57.73 57.52 57.47 57.13 57.00 56.67 56.60 56.38 55.70 55.21 54.60 53.83 46.64 47.07 48.98 54.47 53.99 52.15 51.54 51.54 52.03
56.19 55.72 56.28 57.02 56.89 56.60 56.59 56.90 56.13 55.78 55.41 55.00 55.20 47.01 46.98 47.34 52.44 52.80 52.18 52.15 51.07 50.83
57.04 56.20 56.06 56.05 56.48 56.89 57.24 56.73 56.12 55.54 55.46 55.35 54.98 47.47 46.24 47.11 51.80 52.96 51.83 51.70 52.31 51.57
57.91 56.86 56.59 55.68 55.83 57.06 56.78 56.34 56.18 55.61 55.12 54.85 55.00 47.72 46.63 48.16 52.42 51.95 51.69 51.43 52.03 51.98
59.09 58.08 57.14 56.96 56.74 56.90 57.07 56.24 55.40 54.88 55.31 53.74 54.99 46.84 46.05 47.63 52.09 50.41 50.96 50.97 51.84 48.31
59.97 59.85 58.79 58.23 57.91 57.10 56.69 55.87 55.19 54.52 54.87 54.89 53.80 53.14 45.52 45.06 51.54 50.42 49.77 48.66 49.50 51.48
MSLP
1017.70 1017.77 1018.16 1018.57 1018.91 1019.12 1019.47 1020.10 1020.55 1020.75 1020.89 1021.02 1021.03 1020.97 1020.98 1020.74 1020.92 1021.26 1021.45 1021.64 1021.80 1021.84
1017.77 1018.01 1018.21 1018.87 1019.38 1019.74 1020.04 1020.46 1020.76 1020.96 1021.15 1021.29 1021.37 1021.35 1021.28 1021.06 1021.23 1021.29 1021.37 1021.53 1021.42 1021.36
1018.15 1018.47 1018.84 1019.10 1019.23 1019.70 1020.23 1020.53 1020.85 1021.07 1021.26 1021.35 1021.54 1021.66 1021.55 1021.43 1021.59 1021.52 1021.40 1021.38 1021.80 1021.78
1018.40 1018.77 1019.02 1019.22 1019.53 1019.95 1020.35 1020.62 1020.85 1021.08 1021.26 1021.33 1021.55 1021.64 1021.72 1021.72 1021.69 1021.61 1021.73 1021.84 1021.81 1021.70
1018.49 1018.75 1019.07 1019.31 1019.63 1020.08 1020.35 1020.47 1020.66 1020.88 1021.11 1021.29 1021.53 1021.73 1021.76 1021.68 1021.70 1021.59 1021.48 1021.49 1021.56 1021.41
1018.46 1018.66 1018.97 1019.31 1019.69 1020.02 1020.30 1020.51 1020.63 1020.79 1020.89 1021.07 1021.38 1021.59 1021.69 1021.61 1021.51 1021.48 1021.43 1021.43 1021.41 1021.29
1018.00 1018.27 1018.61 1019.00 1019.45 1019.76 1020.00 1020.27 1020.53 1020.71 1020.83 1020.95 1021.17 1021.39 1021.51 1021.49 1021.42 1021.42 1021.29 1021.40 1021.52 1021.43
1017.42 1017.90 1018.36 1018.72 1019.02 1019.39 1019.71 1020.00 1020.23 1020.46 1020.67 1020.76 1020.91 1021.12 1021.46 1021.46 1021.39 1021.37 1021.19 1021.29 1021.32 1021.22
1016.86 1017.30 1017.81 1018.29 1018.59 1019.02 1019.31 1019.49 1019.92 1020.05 1020.19 1020.44 1020.48 1021.60 1021.92 1021.86 1021.25 1021.21 1021.18 1021.12 1021.14 1021.03
1016.42 1016.81 1016.98 1017.52 1018.00 1018.34 1018.72 1018.96 1019.21 1019.53 1019.77 1019.91 1020.11 1021.15 1021.87 1021.81 1021.33 1020.95 1020.94 1020.87 1020.94 1020.85
1015.53 1016.11 1016.59 1016.85 1017.19 1017.69 1017.96 1018.35 1018.65 1018.84 1019.20 1019.29 1019.51 1020.52 1021.38 1021.58 1021.28 1020.61 1020.58 1020.65 1020.66 1020.96
1014.52 1015.21 1015.65 1015.95 1016.23 1016.74 1017.17 1017.65 1017.95 1018.25 1018.52 1018.66 1018.93 1019.92 1020.65 1021.05 1020.54 1020.03 1020.25 1020.35 1020.36 1020.70
1013.57 1014.11 1014.54 1015.01 1015.34 1015.76 1016.22 1016.79 1017.23 1017.60 1017.84 1018.07 1018.34 1019.21 1019.94 1020.35 1019.66 1019.61 1019.65 1019.84 1020.05 1020.73
1012.64 1013.02 1013.55 1014.17 1014.55 1014.97 1015.28 1015.76 1016.62 1016.87 1017.13 1017.50 1018.08 1018.31 1019.19 1019.68 1019.46 1019.06 1019.24 1019.28 1019.28 1019.58
Wind_Speed
9 7 7 6 6 4 4 5 5 5 5 5 4 3 1 2 1 1 2 3 2 3
7 7 7 9 7 6 5 6 6 6 5 5 4 3 1 3 1 2 2 2 3 5
7 7 8 8 7 7 7 7 7 6 6 5 4 3 1 2 3 2 2 4 5 5
7 8 8 8 8 8 8 8 7 7 6 5 4 3 2 1 1 1 2 3 4 5
7 8 8 8 8 9 9 8 7 7 6 5 5 4 2 1 2 3 4 5 6 7
10 9 9 9 9 9 8 8 7 7 7 6 6 5 3 1 1 2 3 4 6 7
12 11 11 11 10 10 9 8 7 7 6 6 6 5 3 2 1 2 3 4 5 6
12 12 11 11 11 10 10 9 8 8 7 7 6 5 4 4 1 2 3 3 5 4
13 13 13 12 12 11 11 10 9 9 8 8 7 12 4 5 3 3 3 3 4 6
13 14 14 14 13 13 12 11 10 9 9 9 8 13 9 6 7 4 3 4 5 5
16 16 15 15 15 13 12 12 11 10 10 9 7 13 12 10 9 6 4 4 3 4
17 17 17 17 16 14 12 11 11 10 10 10 9 12 11 11 11 7 6 4 4 5
18 18 18 17 16 14 12 12 10 11 10 8 10 14 12 12 8 6 7 5 5 8
17 18 19 17 15 14 13 11 12 11 11 11 11 11 14 14 10 6 6 6 5 6
Wind_Direction
152 160 154 163 155 154 139 130 127 113 102 96 85 80 94 159 310 314 298 297 281 293
146 152 134 135 147 147 137 129 127 122 112 102 92 71 138 78 28 317 303 300 318 308
147 143 146 151 147 151 135 139 141 137 134 127 115 112 243 173 86 337 330 320 341 316
161 160 161 156 152 153 151 153 151 148 141 128 119 102 93 75 26 333 331 316 296 300
178 173 171 165 160 161 161 161 154 153 148 145 144 145 140 87 6 339 331 328 308 309
195 189 184 174 170 174 169 169 170 170 169 166 162 158 145 110 12 344 339 328 323 328
202 199 189 180 180 181 182 180 181 185 181 176 173 170 170 153 118 357 356 339 340 325
202 201 194 189 186 186 189 191 193 190 194 186 188 186 186 172 159 304 319 1 324 1
203 200 199 196 192 192 196 195 201 205 201 196 217 120 192 283 238 267 317 334 340 333
207 209 201 198 198 198 200 198 204 209 210 210 209 156 191 213 253 255 295 302 320 342
206 209 204 201 201 203 203 208 212 206 215 216 203 161 186 201 241 246 260 292 331 304
210 208 206 205 201 202 205 208 212 213 211 210 202 164 185 200 223 234 244 259 236 291
218 212 210 207 201 199 202 208 211 212 211 201 217 160 182 202 233 203 230 215 223 188
222 214 214 208 202 199 197 206 210 213 207 210 209 174 177 197 243 216 217 243 219 214